Regional Weather Roundup
Issued by NWS

Home | Current Version | Previous Version | Graphics & Text | Print | Product List | Glossary On
Versions: 1 2 3 4 5 6 7 8 9 10 11 12 13 14 15 16 17 18 19 20 21 22 23 24 25 26 27 28 29 30 31 32 33 34 35 36 37 38 39 40 41 42 43 44 45 46 47 48 49 50
000
ASUS43 KIND 280009
RWRIN

WEATHER ROUNDUP FOR INDIANA
NATIONAL WEATHER SERVICE INDIANAPOLIS IN
800 PM EDT MON APR 27 2015

NOTE: "FAIR" INDICATES FEW OR NO CLOUDS BELOW 12,000 FEET WITH NO
SIGNIFICANT WEATHER AND/OR OBSTRUCTIONS TO VISIBILITY.

* - STATION DOES NOT REPORT WEATHER SUCH AS PRECIPITATION OR FOG.

+ - STATION NOT QUALITY CONTROLLED BY THE NATIONAL WEATHER SERVICE.
    USE DATA WITH CAUTION...ESPECIALLY DEWPOINT AND RELATIVE
    HUMIDITY OBSERVATIONS.

INZ001>003-010>013-019-020-280100-
NORTHWEST INDIANA

CITY           SKY/WX    TMP DP  RH WIND       PRES   REMARKS
GARY /AIRPORT/ PTCLDY    45  32  61 NE12      30.12F
KNOX *+        CLEAR     46  19  34 N12       30.08R
LA PORTE +     CLEAR     47  36  65 N10       30.10S
6HR MIN TEMP:  47; 6HR MAX TEMP:  53;

MICHIGAN CITY+ PTCLDY    43  30  61 NE6       30.11S
MONTICELLO +   CLEAR     51  34  52 N13       30.07R
6HR MIN TEMP:  51; 6HR MAX TEMP:  56;

VALPARAISO     CLEAR     46  34  62 N9        30.10S
6HR MIN TEMP:  46; 6HR MAX TEMP:  52;


$$

LMZ046-743>745-280100-
SOUTHERN LAKE MICHIGAN

STATION/POSITION TIME  TEMP    WIND        PRES    WAVE
                       AIR SEA DIR/SP/G            HT
                 (UTC) (F)     (DEG/KT/KT) (MB)    (FT)
BURNS HARBOR     0000   44      40/ 12/ 14 1020.0S
MICHIGAN CITY    0000   42      20/ 11/ 13   N/A
5NW MICH CITY    0000   42 45   50/  8/ 12   N/A     3

$$

INZ004-005-014>016-021>024-280100-
NORTH CENTRAL INDIANA

CITY           SKY/WX    TMP DP  RH WIND       PRES   REMARKS
ELKHART        CLEAR     50  34  53 N7        30.08S
GOSHEN         MOCLDY    50  35  56 NE9       30.07S
6HR MIN TEMP:  50; 6HR MAX TEMP:  53;

LOGANSPORT +   PTCLDY    52  32  46 NE3       30.07R
PERU/GRISSOM   PTCLDY    51  38  60 N8        30.05S
6HR MIN TEMP:  51; 6HR MAX TEMP:  54;

ROCHESTER +    PTCLDY    52  36  54 N9        30.07S
SOUTH BEND     PTCLDY    49  33  54 N12       30.09S
6HR MIN TEMP:  49; 6HR MAX TEMP:  55;

WARSAW +       CLOUDY    50  36  57 N6        30.07R

$$

INZ006>009-017-018-025>027-280100-
NORTHEAST INDIANA

CITY           SKY/WX    TMP DP  RH WIND       PRES   REMARKS
ANGOLA *+      MOCLDY    48  32  53 N6G21     30.07R
AUBURN +       PTCLDY    46  32  57 N6        30.08R
FORT WAYNE     MOCLDY    50  36  58 N9        30.07R
6HR MIN TEMP:  50; 6HR MAX TEMP:  54;

HUNTINGTON +   CLOUDY    49  36  60 N5        30.06R
6HR MIN TEMP:  49; 6HR MAX TEMP:  53;


$$

INZ028-029-035-036-043>045-051>053-280100-
WEST CENTRAL INDIANA

CITY           SKY/WX    TMP DP  RH WIND       PRES   REMARKS
CRAWFORDSVL +  CLEAR     50  29  43 N14G21    30.08R
6HR MIN TEMP:  50; 6HR MAX TEMP:  55;

GREENCASTLE +  PTCLDY    52  32  46 N13       30.07R
LAFAYETTE      CLEAR     51  33  50 N14G22    30.07R
6HR MIN TEMP:  51; 6HR MAX TEMP:  56;

TERRE HAUTE    PTCLDY    54  37  52 N15G21    30.07R
6HR MIN TEMP:  54; 6HR MAX TEMP:  60;


$$

INZ030>032-037>040-046>048-054>057-064-065-280100-
CENTRAL INDIANA

CITY           SKY/WX    TMP DP  RH WIND       PRES   REMARKS
CP ATTERBURY + CLOUDY    52  37  58 N9        30.06R
FRANKFORT +    CLEAR     52  37  56 NW13      30.08R
6HR MIN TEMP:  52; 6HR MAX TEMP:  55;

GREENWOOD *+   CLOUDY    52  34  50 N7        30.05R
INDIANAPOLIS   MOCLDY    53  35  50 N14       30.04R
6HR MIN TEMP:  53; 6HR MAX TEMP:  58;

-EAGLE CREEK   CLOUDY    53  35  50 N15       30.06R
6HR MIN TEMP:  53; 6HR MAX TEMP:  56;

KOKOMO *+      PTCLDY    54  37  54 N13       30.06R
6HR MIN TEMP:  52; 6HR MAX TEMP:  55;

MARION +       CLOUDY    50  35  55 N13       30.06R
MT COMFORT *+  CLOUDY    52  30  43 N10       30.06R
SHELBYVILLE    CLOUDY    54  38  54 N7        30.04R
6HR MIN TEMP:  54; 6HR MAX TEMP:  61;

ZIONSVILLE +   MOCLDY    51  35  54 N9        30.06S
6HR MIN TEMP:  51; 6HR MAX TEMP:  54;


$$

INZ033-034-041-042-049-050-058-059-280100-
EAST CENTRAL INDIANA

CITY           SKY/WX    TMP DP  RH WIND       PRES   REMARKS
MUNCIE         CLOUDY    51  36  56 NE12      30.05R
6HR MIN TEMP:  51; 6HR MAX TEMP:  55;


$$

INZ060-061-067>069-081>083-085>088-280100-
SOUTHWEST INDIANA

CITY           SKY/WX    TMP DP  RH WIND       PRES   REMARKS
EVANSVILLE     CLEAR     61  38  42 N12       30.01S
6HR MIN TEMP:  60; 6HR MAX TEMP:  66;

HUNTINGBURG *+ CLEAR     57  37  47 N12G17    30.00F
6HR MIN TEMP:  57; 6HR MAX TEMP:  64;

WASHINGTON +   CLEAR     57  32  39 N12       30.02S
6HR MIN TEMP:  57; 6HR MAX TEMP:  63;


$$

INZ062-063-066-070>080-084-089>092-280100-
SOUTH CENTRAL AND SOUTHEAST INDIANA

CITY           SKY/WX    TMP DP  RH WIND       PRES   REMARKS
BLOOMINGTON    CLOUDY    54  36  50 N13       30.05R
6HR MIN TEMP:  54; 6HR MAX TEMP:  63;

MADISON *+     PTCLDY    54  34  47 N7        30.03S
NORTH VERNON + CLOUDY    54  37  54 N8        30.04R
SEYMOUR +      CLOUDY    57  37  47 N12       30.03R

$$



USA.gov is the U.S. government's official web portal to all federal, state and local government web resources and services.